Flag for Albania Weather past 2 weeks in Durrës, Albania

Now
81 °F

Scattered clouds.


Feels Like: 83 °F
Forecast: 72 / 81 °F
Wind: 3 mph from North

Location: Tirana Airport

Current Time: Jul 24, 2014 at 1:50:05 PM

Latest Report: Jul 24, 2014 at 1:20 PM


Visibility: N/A

Pressure: 29.86 "Hg

Humidity: 62%

Dew point: 66 °F

Location of DurrësLocation

Historic Weather in Durrës — Graph

°F

Durrës temperature yesterday

Maximum temperature yesterday: 79 °F (at 12:50 PM)
Minimum temperature yesterday: 66 °F (at 4:50 AM)
Average temperature yesterday: 71 °F

Past Weeks' High & Low Weather Summary

 TemperatureHumidityPressure
High91 °F (Jul 19, 1:50 PM)94% (Jul 12, 3:20 AM)29.98 "Hg (Jul 12, 3:20 AM)
Low59 °F (Jul 16, 2:50 AM)32% (Jul 9, 6:20 PM)29.68 "Hg (Jul 11, 3:20 AM)
Average73 °F68%29.87 "Hg
* Reported Jul 9 2:50 PM — Jul 24 12:50 PM, Durrës, Weather by CustomWeather, © 2014

Note: Actual official high and low records may vary slightly from our data, if they occured in-between our weather recording intervals... More about our weather records

Advertising

Durrës weather history for previous 24 hours

 ConditionsComfort  
Time TempWeatherWind HumidityBarometerVisibility
12:50 PM
Jul 24
81 °FMore clouds than sun.6 mph62%29.86 "HgN/A
12:20 PM82 °FBroken clouds.2 mph55%29.86 "HgN/A
11:50 AM81 °FBroken clouds.6 mph66%29.86 "HgN/A
11:20 AM79 °FScattered clouds.2 mph58%29.86 "HgN/A
10:50 AM77 °FScattered clouds.5 mph61%29.86 "HgN/A
10:20 AM77 °FScattered clouds.2 mph65%29.86 "HgN/A
9:50 AM77 °FScattered clouds.2 mph61%29.86 "HgN/A
9:20 AM75 °FScattered clouds.3 mph69%29.83 "HgN/A
8:50 AM73 °FScattered clouds.5 mph74%29.83 "HgN/A
8:20 AM73 °FScattered clouds.3 mph74%29.83 "HgN/A
7:50 AM72 °FScattered clouds.3 mph78%29.83 "HgN/A
7:20 AM70 °FScattered clouds.2 mph83%29.83 "HgN/A
6:50 AM66 °FScattered clouds.3 mph88%29.83 "HgN/A
6:20 AM66 °FPassing clouds.3 mph88%29.83 "HgN/A
5:50 AM64 °FPassing clouds.5 mph88%29.83 "HgN/A
5:20 AM64 °FPassing clouds.3 mph94%29.83 "Hg4 mi
4:50 AM66 °FPassing clouds.3 mph88%29.83 "HgN/A
4:20 AM66 °FPassing clouds.No wind88%29.83 "HgN/A
3:50 AM66 °FPassing clouds.3 mph88%29.80 "HgN/A
3:20 AM66 °FPassing clouds.5 mph88%29.80 "HgN/A
2:50 AM64 °FPassing clouds.3 mph94%29.83 "HgN/A
1:50 AM66 °FPassing clouds.3 mph88%29.83 "HgN/A
1:20 AM64 °FClear.3 mph94%29.83 "Hg10 mi
12:50 AM64 °FClear.5 mph94%29.83 "Hg10 mi
12:20 AM66 °FClear.3 mph88%29.83 "Hg10 mi
11:50 PM
Jul 23
66 °FPassing clouds.3 mph94%29.83 "HgN/A
11:20 PM66 °FClear.2 mph94%29.83 "Hg10 mi
10:50 PM66 °FClear.2 mph94%29.83 "Hg5 mi
10:20 PM68 °FPassing clouds.2 mph94%29.83 "Hg6 mi
9:50 PM68 °FPassing clouds.3 mph88%29.83 "HgN/A
9:20 PM68 °FPassing clouds.3 mph88%29.80 "HgN/A
8:50 PM70 °FScattered clouds.2 mph83%29.80 "HgN/A
8:20 PM70 °FScattered clouds.2 mph88%29.80 "HgN/A
7:50 PM72 °FScattered clouds.2 mph73%29.80 "HgN/A
7:20 PM73 °FPartly sunny.2 mph69%29.80 "HgN/A
6:50 PM73 °FPartly sunny.No wind74%29.80 "HgN/A
6:20 PM73 °FMild.5 mph65%29.80 "HgN/A
5:50 PM73 °FScattered clouds.2 mph69%29.77 "HgN/A
5:20 PM73 °FBroken clouds.No wind74%29.77 "HgN/A
4:50 PM72 °FScattered clouds.2 mph83%29.77 "HgN/A
4:20 PM70 °FLight rain. Broken clouds.3 mph88%29.77 "HgN/A
3:50 PM70 °FLight rain. Broken clouds.3 mph88%29.77 "HgN/A
3:20 PM70 °FLight rain. Broken clouds.5 mph88%29.77 "HgN/A
1:20 PM73 °FThundershowers. Broken clouds.No wind61%29.74 "HgN/A
Weather by CustomWeather, © 2014

See weather overviewHow to use our weather pages